Find Starlink 33683

NORAD ID: 63573 Int'l Des: 2025-076 Owner: SPXS Country: US Constellation: starlink operational
LEOCIRCULAR

Current View

Loading 3D Globe...

About Starlink 33683

Starlink 33683 (NORAD 63573) is a starlink constellation satellite (v2 mini) launched Apr 14, 2025 by SPXS of US. It operates in LEO, CIRCULAR orbit with a mass of 575.00 kg.

About Starlink 33683

Description loading...

Upcoming Passes

Passes for default location (London). Set your location on the main map for personalized predictions.

Altitude History

Loading altitude history...

Two-Line Element Set

1 63573U 25076E 26171.13012626 .00015545 00000-0 57298-3 0 9996
2 63573 43.0039 103.4900 0000965 265.1868 94.8874 15.27593120 67499
Epoch: Jun 20, 2026 • Age: 23 hours

Current Status

Altitude 485.9 km
Velocity 7.62 km/s
Sub-Earth Point -15.95°S, 3.12°W
Launch Date Apr 14, 2025
Age 1.1 years
Type internet

Technical Details

Classification Payload
Mass 575.00 kg
Dry Mass 530.00 kg
Total Mass 575.00 kg
Length 0.30 m
Diameter 4.10 m
Span 29.00 m
Shape Box + pan
Manufacturer SPXS
Bus Type Starlink V2MO
Phase Status In Orbit
Owner/State SPXS/US

Most Searched